Regional Weather Roundup
Issued by NWS Northern Indiana

Home | Current Version | Previous Version | Text Only | Print | Product List | Glossary On
Versions: 1 2 3 4 5 6 7 8 9 10 11 12 13 14 15 16 17 18 19 20 21 22 23 24 25 26 27 28 29 30 31 32 33 34 35 36 37 38 39 40 41 42 43 44 45 46 47 48 49 50
000
ASUS43 KIWX 011510
RWRIWX

KIWX WEATHER ROUNDUP
NATIONAL WEATHER SERVICE NORTHERN INDIANA
1000 AM EST SUN MAR 01 2015

NOTE: "FAIR" INDICATES FEW OR NO CLOUDS BELOW 12,000 FEET WITH NO
SIGNIFICANT WEATHER AND/OR OBSTRUCTIONS TO VISIBILITY.

* THESE STATIONS ARE NOT UNDER NWS QUALITY CONTROL. THEY ALSO MAY NOT
  REPORT WEATHER SUCH AS PRECIPITATION OR FOG.

INZ001>027-011600-
NORTHERN INDIANA

CITY           SKY/WX    TMP DP  RH WIND       PRES   REMARKS
GARY*          LGT SNOW  21  14  73 S5        30.40R WCI  15
VALPARAISO     LGT SNOW  19  15  84 CALM      30.38R VSB 3/4
MICHIGAN CITY* LGT SNOW  19  12  73 CALM      30.39S
LAPORTE*       LGT SNOW  20  17  87 CALM      30.38S
KNOX*            N/A     21  10  63 CALM      30.37F VSB 1
SOUTH BEND     LGT SNOW  18  14  84 VRB3      30.38F FOG
ELKHART*       LGT SNOW  18  12  79 CALM      30.38F
GOSHEN         LGT SNOW  19  16  88 CALM      30.36F VSB 1
MONTICELLO*    LGT SNOW  21  19  91 CALM      30.37F
LOGANSPORT*    LGT SNOW  21  19  93 CALM      30.37F
ROCHESTER*     LGT SNOW  25  21  86 CALM      30.37F VSB 3/4
WARSAW*        LGT SNOW  19  18  93 CALM      30.36S
ANGOLA*        CLOUDY    18   9  68 CALM      30.34F
FORT WAYNE     LGT SNOW  19  17  92 CALM      30.37F FOG
HUNTINGTON*    LGT SNOW  20  15  78 CALM      30.36F
PERU/GRISSOM   LGT SNOW  21  18  90 E2        30.35S FOG
MARION*        LGT SNOW  22  20  90 CALM      30.36F VSB 1

$$
INZ028>050-011600-
CENTRAL INDIANA

CITY           SKY/WX    TMP DP  RH WIND       PRES   REMARKS
LAFAYETTE      LGT SNOW  21  20  96 CALM      30.37S VSB 3/4
KOKOMO*          N/A     21  18  86 CALM      30.37S VSB 3/4
MUNCIE*        SNOW      27  24  89 CALM      30.35F VSB 1/2
INDIANAPOLIS   SNOW      28  24  85 CALM      30.34F VSB 1/2

$$
MIZ043>046-050>051-056>058-064>065-071>073-077>080-011600-
SOUTHWEST LOWER MICHIGAN

CITY           SKY/WX    TMP DP  RH WIND       PRES   REMARKS
BATTLE CREEK   PTSUNNY   16  11  80 S8        30.35F WCI   5
BENTON HARBOR  CLOUDY    17  14  88 S7        30.38S FOG     WCI   8
COLDWATER*     PTSUNNY   18  13  81 CALM      30.35F
HILLSDALE*     FLURRIES  18  14  84 CALM      30.33F
HOLLAND        PTSUNNY   17  13  84 S7        30.36F FOG     WCI   8
GRAND RAPIDS   PTSUNNY   14  10  84 S6        30.35F FOG     WCI   5
KALAMAZOO      PTSUNNY   16  12  84 S5        30.36F WCI   9
STURGIS*       LGT SNOW  18  14  86 CALM      30.35F
THREE RIVERS*  LGT SNOW  17  12  81 SE3       30.37F VSB 1

$$
OHZ001>008-015>018-024>025-011600-
NORTHWEST OHIO

CITY           SKY/WX    TMP DP  RH WIND       PRES   REMARKS
WAUSEON*       LGT SNOW  18  14  86 CALM      30.37F
DEFIANCE       LGT SNOW  20  15  81 CALM      30.38F
FINDLAY        SNOW      23  20  88 CALM      30.36F VSB 1/2
TOLEDO EXPRESS LGT SNOW  19  15  84 CALM      30.38F FOG
TOLEDO METCALF LGT SNOW  21  16  81 CALM      30.39F
LIMA           SNOW      26  22  84 CALM      30.35S VSB 1/2

$$
AND FOR LAKE MICHIGAN COASTAL AND OPEN LAKE BUOY OBSERVATIONS

STATION/POSITION TEMP    WIND        PRES    VSBY  WAVE
                 AIR SEA DIR/SP/G                  HT/PER
                 (F)     (DEG/KT/KT) (MB)    (MI)  (FT/S)
CALUMET HARBOR    20     190/  3/  4 1027.6F
MICHIGAN CITY     18     130/  5/  5   N/A
SAINT JOSEPH      20      CALM  /  7 1029.1R

$$
&&


USA.gov is the U.S. government's official web portal to all federal, state and local government web resources and services.